Skip Page Navigation
NASA JPL Caltech
NASA Logo - Jet Propulsion Laboratory + View the NASA Portal
+ Near-Earth Object (NEO) Program
Search JPL
JPL Home Earth Solar System Stars & Galaxies Technology
JPL Solar System Dynamics
BODIES ORBITS EPHEMERIDES TOOLS PHYSICAL DATA DISCOVERY FAQ SITE MAP
JPL Small-Body Database Browser
Search: [ help ]  
14993 (1997 UC15)
Classification: Main-belt Asteroid          SPK-ID: 2014993
Ephemeris | Orbit Diagram | Orbital Elements | Physical Parameters | Discovery Circumstances | Close-Approach Data ]

[ show orbit diagram ]
Orbital Elements at Epoch 2457000.5 (2014-Dec-09.0) TDB
Reference: JPL 12 (heliocentric ecliptic J2000)
 Element Value Uncertainty (1-sigma)   Units 
e .198413107726204 6.9852e-08  
a 3.116620822115801 2.7625e-08 AU
q 2.498242399195608 2.2425e-07 AU
i 1.083586847810107 6.5905e-06 deg
node 124.2460934682161 0.00037508 deg
peri 252.4993904609718 0.00037554 deg
M 56.55992160376717 1.5657e-05 deg
tp 2456684.759220573900
(2014-Jan-27.25922057)
8.6816e-05 JED
period 2009.668284013771
5.50
2.6719e-05
7.315e-08
d
yr
n .1791340406094268 2.3817e-09 deg/d
Q 3.734999245035994 3.3106e-08 AU
  Orbit Determination Parameters
   # obs. used (total)      871  
   data-arc span      14336 days (39.25 yr)  
   first obs. used      1975-11-09  
   last obs. used      2015-02-08  
   planetary ephem.      DE431  
   SB-pert. ephem.      SB431-BIG16  
   condition code      0  
   fit RMS      .542  
   data source      ORB  
   producer      Otto Matic  
   solution date      2015-Mar-09 14:40:41  

Additional Information
 Earth MOID = 1.50001 AU 
 T_jup = 3.186 
[ show covariance matrix ]

Ephemeris | Orbit Diagram | Orbital Elements | Physical Parameters | Discovery Circumstances | Close-Approach Data ]

Physical Parameter Table
Parameter Symbol Value Units Sigma Reference Notes
absolute magnitude H 13.6 mag n/a MPO272711  

14993 (1997 UC15)          Discovered 1997-Oct-26 by Shimizu, Y., Urata, T. at Nachi-Katsuura
Reference: 20000523/Numbers.arcLast Updated: 2004-04-19

[ show close-approach data ]
Alternate Designations
 1997 UC15 = 1975 VS9 = 1986 VP6 
Ephemeris | Orbit Diagram | Orbital Elements | Physical Parameters | Discovery Circumstances | Close-Approach Data ]
ABOUT SSD CREDITS/AWARDS PRIVACY/COPYRIGHT GLOSSARY LINKS
FirstGov 2015-Mar-31 20:50 UT
(server date/time)  
NASA Home Page
Site Manager:   Ryan S. Park
Webmaster  Alan B. Chamberlin